Location: Unspecified
(0.0000°N, 0.0000°E)
Time: 18:59:17
(UTC+00:00)

Vanguard 3 - Pass Details

Date: 23 November 2019
Orbit: 508 x 3263 km, 33.3° (Epoch: 06 December)

Event Time Altitude Azimuth Distance (km) Brightness Sun altitude
Rises 20:54:45 0° 304° (NW) 5,816 11.8 -43.3°
Reaches altitude 10° 20:59:18 10° 304° (NW) 4,359 11.0 -44.3°
Enters shadow 21:04:51 30° 302° (WNW) 2,509 9.6 -45.5°
Maximum altitude 21:10:04 83° 217° (SW) 1,215 - -46.7°
Drops below altitude 10° 21:15:57 10° 129° (SE) 2,475 - -47.9°
Sets 21:17:54 0° 128° (SE) 3,201 - -48.3°
